Weather History for Dubuque, IA

Change the Weather History Date:

Saturday, April 12, 2014

  Actual Average Record
Temperature  
Mean Temperature 63 °F 47 °F  
Max Temperature 78 °F 57 °F 82 °F (1941)
Min Temperature 47 °F 37 °F 19 °F (1957)
Degree Days  
Heating Degree Days 2 18  
Month to date heating degree days 240 245  
Since 1 July heating degree days 7775 6556  
Cooling Degree Days 0 0  
Month to date cooling degree days 0 0  
Year to date cooling degree days 0 0  
Growing Degree Days 12 (Base 50)    
Moisture  
Dew Point 45 °F    
Average Humidity 59    
Maximum Humidity 77    
Minimum Humidity 41    
Precipitation  
Precipitation 0.64 in 0.12 in 2.10 in (1889)
Month to date precipitation 0.80 1.34  
Year to date precipitation 4.42 6.36  
Snow  
Snow 0.00 in 0.10 in - ()
Month to date snowfall 0.0 1.2  
Since 1 July snowfall 62.6 41.1  
Snow Depth 0.00 in    
Sea Level Pressure  
Sea Level Pressure 29.75 in    
Wind  
Wind Speed 16 mph (SSE)    
Max Wind Speed 41 mph    
Max Gust Speed 54 mph    
Visibility 9 miles    
Events Rain , Thunderstorm    
T = Trace of Precipitation, MM = Missing Value Source: NWS Daily Summary

Daily Weather History Graph

Daily Weather History Graph

Search for Another Location

Airport:

Trip Planner

Search our weather history database for the weather conditions in past years. The results will help you decide how hot, cold, wet, or windy it might be!

Date:

Astronomy

Apr. 12, 2014 Rise Set
Actual Time 6:26 AM CDT 7:41 PM CDT
Civil Twilight 5:57 AM CDT 8:10 PM CDT
Nautical Twilight 5:22 AM CDT 8:45 PM CDT
Astronomical Twilight 4:46 AM CDT 9:21 PM CDT
Moon 5:17 PM CDT (4/12) 4:56 AM CDT (4/12)
Length of Visible Light 14h 12m
Length of Day
13h 14m
Waxing Gibbous, 93% of the Moon is Illuminated
Apr 12
Waxing Gibbous
Apr 15
Full
Apr 22
Last Quarter
Apr 29
New
May 6
First Quarter

Hourly Weather History & Observations

Time (CDT) Temp. Dew Point Humidity Pressure Visibility Wind Dir Wind Speed Gust Speed Precip Events Conditions
12:53 AM 51.1 °F 30.9 °F 46% 29.96 in 10.0 mi ESE 12.7 mph - N/A   Clear
1:53 AM 54.0 °F 30.9 °F 41% 29.95 in 10.0 mi SE 11.5 mph - N/A   Clear
2:53 AM 53.1 °F 30.9 °F 43% 29.94 in 10.0 mi SSE 12.7 mph - N/A   Scattered Clouds
3:53 AM 53.1 °F 30.9 °F 43% 29.91 in 10.0 mi SSE 17.3 mph - N/A   Overcast
4:53 AM 51.1 °F 30.9 °F 46% 29.87 in 10.0 mi SSE 15.0 mph - N/A   Clear
5:53 AM 50.0 °F 32.0 °F 50% 29.86 in 10.0 mi SSE 13.8 mph - N/A   Mostly Cloudy
6:53 AM 51.1 °F 33.1 °F 50% 29.88 in 10.0 mi SSE 10.4 mph - N/A   Overcast
7:37 AM 50.0 °F 37.9 °F 63% 29.86 in 6.0 mi SE 10.4 mph - N/A Rain , Thunderstorm Thunderstorms and Rain
7:53 AM 48.9 °F 39.9 °F 71% 29.88 in 1.8 mi SSE 10.4 mph - 0.09 in Rain , Thunderstorm Thunderstorms and Rain
8:16 AM 50.0 °F 42.1 °F 74% 29.86 in 2.0 mi East 12.7 mph - 0.31 in Rain , Thunderstorm Thunderstorms and Rain
8:24 AM 46.9 °F 44.1 °F 90% 29.85 in 10.0 mi ENE 4.6 mph - 0.31 in Thunderstorm Thunderstorm
8:39 AM 51.1 °F 43.0 °F 74% 29.85 in 10.0 mi ESE 9.2 mph - 0.31 in Thunderstorm Scattered Clouds
8:53 AM 51.1 °F 44.1 °F 77% 29.84 in 10.0 mi East 9.2 mph - 0.31 in   Partly Cloudy
9:53 AM 55.9 °F 45.0 °F 67% 29.80 in 10.0 mi SSE 16.1 mph - N/A   Clear
10:53 AM 66.0 °F 52.0 °F 60% 29.74 in 10.0 mi SSW 21.9 mph - N/A   Clear
11:53 AM 72.0 °F 54.0 °F 53% 29.69 in 10.0 mi SSW 23.0 mph - N/A   Clear
12:53 PM 75.0 °F 55.0 °F 50% 29.65 in 10.0 mi SSW 27.6 mph 39.1 mph N/A   Clear
1:53 PM 77.0 °F 55.0 °F 47% 29.67 in 10.0 mi SW 19.6 mph 29.9 mph N/A   Partly Cloudy
2:53 PM 75.9 °F 55.0 °F 48% 29.65 in 10.0 mi SW 24.2 mph 31.1 mph N/A   Mostly Cloudy
3:53 PM 75.9 °F 55.9 °F 50% 29.63 in 10.0 mi SSW 19.6 mph 26.5 mph N/A   Scattered Clouds
4:53 PM 78.1 °F 55.0 °F 45% 29.59 in 10.0 mi SSW 25.3 mph 33.4 mph N/A   Partly Cloudy
5:53 PM 78.1 °F 55.0 °F 45% 29.60 in 10.0 mi SSW 18.4 mph 26.5 mph N/A   Clear
6:53 PM 75.0 °F 55.0 °F 50% 29.60 in 10.0 mi SSW 11.5 mph - N/A   Partly Cloudy
7:53 PM 70.0 °F 55.0 °F 59% 29.61 in 10.0 mi SSE 10.4 mph - N/A   Mostly Cloudy
8:53 PM 64.0 °F 53.1 °F 67% 29.61 in 10.0 mi North 9.2 mph - N/A   Partly Cloudy
9:53 PM 59.0 °F 48.9 °F 69% 29.60 in 10.0 mi NNE 15.0 mph - N/A   Overcast
10:53 PM 55.0 °F 46.9 °F 74% 29.58 in 10.0 mi North - - N/A   Mostly Cloudy
11:10 PM 54.0 °F 46.9 °F 77% 29.58 in 9.0 mi NE 13.8 mph - N/A Thunderstorm Partly Cloudy
11:25 PM 53.1 °F 46.9 °F 80% 29.58 in 9.0 mi ENE 6.9 mph - N/A   Mostly Cloudy
11:53 PM 53.1 °F 46.9 °F 80% 29.56 in 8.0 mi NNE 17.3 mph - N/A Thunderstorm Mostly Cloudy